Regional Weather Roundup
Issued by NWS Charleston, WV

Home | Current Version | Previous Version | Graphics & Text | Print | Product List | Glossary On
Versions: 1 2 3 4 5 6 7 8 9 10 11 12 13 14 15 16 17 18 19 20 21 22 23 24 25 26 27 28 29 30 31 32 33 34 35 36 37 38 39 40 41 42 43 44 45 46 47 48 49 50
273
ASUS41 KRLX 060210
RWRRLX
West Virginia Regional Weather Roundup
National Weather Service Charleston WV
900 PM EST FRI FEB 05 2016

Note: "fair" indicates few or no clouds below 12,000 feet with no
significant weather and/or obstructions to visibility.

WVZ003-060300-
Northern Panhandle of West Virginia

CITY           SKY/WX    TMP DP  RH WIND       PRES   REMARKS
WHEELING         N/A     31  15  52 S5        30.34F
$$

WVZ009-060300-
Northwest West Virginia

CITY           SKY/WX    TMP DP  RH WIND       PRES   REMARKS
PARKERSBURG      N/A     31  16  54 CALM      30.40F
$$

WVZ006-060300-
Western West Virginia

CITY           SKY/WX    TMP DP  RH WIND       PRES   REMARKS
HUNTINGTON       N/A     32  16  51 SE3       30.37F
$$

WVZ015-060300-
West Central West Virginia

CITY           SKY/WX    TMP DP  RH WIND       PRES   REMARKS
CHARLESTON       N/A     29  18  63 CALM      30.38F
$$

WVZ022-031-060300-
North Central West Virginia

CITY           SKY/WX    TMP DP  RH WIND       PRES   REMARKS
CLARKSBURG       N/A     28  17  63 CALM      30.36F
MORGANTOWN       N/A     28  15  58 S3        30.37S
$$

WVZ025-035-042-045-060300-
Southern West Virginia

CITY           SKY/WX    TMP DP  RH WIND       PRES   REMARKS
BECKLEY          N/A     26  14  60 CALM      30.33S
LOGAN            N/A     32  14  47 CALM      30.36S
BLUEFIELD        N/A     27   9  46 CALM      30.32R
LEWISBURG        N/A     29  17  59 CALM      30.34R
$$

WVZ047-060300-
Northern Mountains of West Virginia

CITY           SKY/WX    TMP DP  RH WIND       PRES   REMARKS
ELKINS           N/A     22  15  75 CALM      30.35S
$$

WVZ052-060300-
Eastern Panhandle of West Virginia

CITY           SKY/WX    TMP DP  RH WIND       PRES   REMARKS
MARTINSBURG      N/A     27  16  63 CALM      30.37S
PETERSBURG       N/A     28  19  70 CALM      30.39R
$$




USA.gov is the U.S. government's official web portal to all federal, state and local government web resources and services.